STARLINK-1355, 45563

Orbit data source: Space-Track

STARLINK-1355, 45563 is a payload satellite owned by SpaceX/Seattle (US) in LEO that was launched on Wed, 22 Apr 2020 UTC via an FALCON 9 launch vehicle from the Air Force Eastern Test Range (AFETR). Payloads include a variety of satellites, spacecraft, and rockets equipped with specific instruments for various scientific and technological missions. These include communications satellites like Starlink; space stations such as the ISS; scientific satellites like the Hubble; Earth observation satellites from companies like Planet Labs, Umbra, and HawkEye 360; GPS; miniature CubeSats for education and research; and military/defense satellites.

Loading next visibility...
STARLINK-1355 details
Identifier
45563, 2020-025AJ
Orbit
LEO
Last TLE update13 hours ago
Origin
Flag of USSpaceX/Seattle (US)
ManufacturerSpaceX/Seattle
MissionPartially operational Commercial Communications
Bus & MotorSTARLINK, Unknown motor
Mass260 kg wet, ~248 kg dry
Launch date (UTC)
2020-04-22 (5 years ago)
Launch vehicle
FALCON 9
Launch site
Air Force Eastern Test Range (AFETR)
Object type
Payload
Rocket body
Debris
Shape & HBRBox + 1 Pan, 8.86 m
Radar Cross Section13.562 m², Large (>1 m²)

Expand to show TLE details & history

TLE from 13 hours ago
0 STARLINK-1355
1 45563U 20025AJ  25044.15015720  .00023168  00000-0  60204-3 0  9993
2 45563  53.0537  19.8087 0003016 111.6686 248.4639 15.38861540266270
Epoch: 2025-02-13T03:36Z
Definitive object data (Epoch: 2025-02-13T03:36:13.582Z)
Latitude0.00004°
Longitude-177.67827°
Altitude451.123 km
Speed7.642 km/s
True Right ascension01h 19m 14s
True Declination0° 00' 00"
Sunlit
Object was in daylight at TLE epoch
Visualization TLE readout
Latitude-7.51359°
Longitude5.36968°
Altitude451.065 km
Speed7.643 km/s
Apparent Right ascension11h 07m 02s
Apparent Declination-30° 48' 37"
Sunlit
Object is in full shadow
Visualization observer readout
Local Sidereal Time19:28:57
Azimuth264.043° W
Elevation-45.316°
Doppler factor1
Orbital elements
Apogee altitude451.809 km
Perigee altitude447.69 km
Semi-major axis6,827.886 km
Eccentricity0.0003016
Inclination53.0537°
RAAN19.8087°
Arg. of periapsis111.6686°
True anomaly248.43176°
Mean anomaly248.4639°
Eccentric anomaly248.44783°
Mean motion3.84693 °/min
BSTAR0.00060204
Orbital period93.58 mins
Loading maneuver chart data...
Loading historical data...
Loading historical data...
Loading historical data...
Loading historical data...
Loading historical data...
Loading historical data...
Loading historical data...

STARLINK-1355 Visibility forecast

Observer location: undefined°, undefined

Span
Click to sort rows by Start time (UTC) header in descending order
Start Az.
Max El. time (UTC)
Max El. Az.
Max El.
End time (UTC)
End Az.
5 mins2025-02-14 00:01:31.338Z178.286° S2025-02-14 00:03:31.338Z137.67° SSE21.32°2025-02-14 00:06:31.338Z77.27° E
4 mins2025-02-14 01:39:31.338Z276.286° WNW2025-02-14 01:40:31.338Z306.409° NW30.937°2025-02-14 01:43:31.338Z32.008° NE
5 mins2025-02-14 06:33:31.338Z334.025° NNW2025-02-14 06:36:31.338Z40.215° NE22.444°2025-02-14 06:38:31.338Z80.12° E
5 mins2025-02-14 08:11:31.338Z288.511° WNW2025-02-14 08:13:31.338Z228.041° WSW34.573°2025-02-14 08:16:31.338Z154.594° SSE
|